CZ-6A DEB, 56639

Orbit data source: Space-Track

CZ-6A DEB, 56639 is space debris in SSO originally from a launch on Fri, 11 Nov 2022 UTC launched from the Taiyaun Space Center, China (TSC). Debris objects in space refer to the collection of defunct objects orbiting the Earth. Examples of debris include non-operational satellites, rocket bodies, and fragments generated from explosions, collisions, or faulty payload assembly.

Loading next visibility...
Identifier
56639, 2022-151AFP
Orbit
SSO
Country
Flag of CNCN / PRC
Related business
Manufacturer
SAST
Mission
Spacecraft
Bus & Motor
Unknown
Mass
Unknown
Launch date (UTC)
2022-11-11 (3 years ago)
Launch vehicle
Unknown
Launch site
Taiyaun Space Center, China (TSC)
Object type
Payload
Rocket body
Debris
Shape & HBR
Unknown shape, 0.1 m
Radar Cross Section
Small (<0.1 m²)

Expand to show TLE details & history
Last TLE update: 1 day ago

TLE from 1 day ago
0 CZ-6A DEB
1 56639U 22151AFP 25349.04261689  .00000363  00000-0  16130-3 0  9995
2 56639  98.7696  20.3552 0040158 192.3229 167.6974 14.28528806138049
Epoch: 2025-12-15T01:01Z
TLE epoch observation values (Epoch: 2025-12-15T01:01:22.099Z)
Latitude
0.00003°
Longitude
-78.93374°
Altitude
827.739 km
Speed
7.425 km/s
True Right ascension
01h 21m 25s
True Declination
0° 00' 00"
Sunlit
Object was in daylight at epoch
Visualization orbit readout
Latitude
Unknown
Longitude
Unknown
Altitude
Unknown
Speed
Unknown
Apparent Right ascension
Unknown
Apparent Declination
Unknown
Sunlit
N/A
Visualization observer readout
Local Sidereal Time
06:12:31
Azimuth
Unknown
Elevation
Unknown
Doppler factor
Unknown
Orbital elements
Apogee altitude
822.604 km
Perigee altitude
765.002 km
Semi-major axis
7,171.94 km
Eccentricity
0.00402
Inclination
98.7696°
RAAN
20.3552°
Arg. of periapsis
192.3229°
True anomaly
167.79497°
Mean anomaly
167.6974°
Eccentric anomaly
167.74623°
Mean motion
3.57345 °/min
Orbital period
100.74 mins
BSTAR
0.0001613
Loading maneuver chart data...
Computing Atmospheric mass density...
Loading historical data...
Loading historical data...
Loading historical data...
Loading historical data...
Loading historical data...
Loading historical data...
Loading historical data...

Documentation

Showing up to 5 results
|